TimeEST,TemperatureF,Dew PointF,Humidity,Sea Level PressureIn,VisibilityMPH,Wind Direction,Wind SpeedMPH,Gust SpeedMPH,PrecipitationIn,Events,Conditions,WindDirDegrees,DateUTC
12:56 AM,3.9,-9.0,55,29.95,-9999.0,ESE,5.8,-,N/A,,Unknown,120,2013-02-06 05:56:00
1:56 AM,5.0,-9.0,52,29.94,-9999.0,SE,4.6,-,N/A,,Unknown,140,2013-02-06 06:56:00
2:56 AM,6.1,-8.0,53,29.91,-9999.0,SE,3.5,-,N/A,,Unknown,140,2013-02-06 07:56:00
3:56 AM,6.1,-7.1,55,29.92,-9999.0,Calm,Calm,-,N/A,,Unknown,0,2013-02-06 08:56:00
4:56 AM,6.1,-2.9,67,29.92,-9999.0,SSE,3.5,-,N/A,,Unknown,160,2013-02-06 09:56:00
5:56 AM,6.1,-0.9,73,29.92,-9999.0,SSE,4.6,-,N/A,,Unknown,160,2013-02-06 10:56:00
6:56 AM,8.1,1.0,73,29.93,-9999.0,SSE,3.5,-,N/A,,Unknown,160,2013-02-06 11:56:00
7:56 AM,8.1,3.0,80,29.94,-9999.0,Calm,Calm,-,N/A,,Unknown,0,2013-02-06 12:56:00
8:56 AM,9.0,3.9,80,29.93,-9999.0,SSE,3.5,-,N/A,,Unknown,160,2013-02-06 13:56:00
9:56 AM,12.9,8.1,81,29.91,-9999.0,South,4.6,-,N/A,,Unknown,170,2013-02-06 14:56:00
10:56 AM,18.0,12.0,78,29.88,-9999.0,South,8.1,-,N/A,,Unknown,180,2013-02-06 15:56:00
11:56 AM,19.9,12.9,74,29.86,-9999.0,South,5.8,-,N/A,,Unknown,170,2013-02-06 16:56:00
12:56 PM,21.9,12.9,68,29.85,-9999.0,Variable,4.6,-,N/A,,Unknown,0,2013-02-06 17:56:00
1:56 PM,24.1,15.1,69,29.86,-9999.0,Variable,3.5,-,N/A,,Unknown,0,2013-02-06 18:56:00
2:56 PM,23.0,5.0,46,29.90,-9999.0,Variable,5.8,23.0,N/A,,Unknown,0,2013-02-06 19:56:00
3:56 PM,19.9,7.0,57,29.93,-9999.0,Variable,4.6,-,N/A,,Unknown,0,2013-02-06 20:56:00
4:56 PM,17.1,3.9,56,29.97,-9999.0,Variable,6.9,-,N/A,,Unknown,0,2013-02-06 21:56:00
5:56 PM,15.1,1.0,54,30.00,-9999.0,Variable,4.6,-,N/A,,Unknown,0,2013-02-06 22:56:00
6:56 PM,14.0,1.0,56,30.04,-9999.0,Variable,4.6,-,N/A,,Unknown,0,2013-02-06 23:56:00
7:56 PM,10.9,1.9,67,30.08,-9999.0,WNW,8.1,-,N/A,,Unknown,300,2013-02-07 00:56:00
8:56 PM,8.1,-6.0,53,30.12,-9999.0,WNW,6.9,18.4,N/A,,Unknown,290,2013-02-07 01:56:00
9:56 PM,5.0,-5.1,63,30.14,-9999.0,NW,11.5,20.7,N/A,,Unknown,310,2013-02-07 02:56:00
10:56 PM,3.0,-8.0,60,30.16,-9999.0,WNW,9.2,24.2,N/A,,Unknown,300,2013-02-07 03:56:00
11:56 PM,1.0,-9.0,63,30.19,-9999.0,WNW,9.2,17.3,N/A,,Unknown,300,2013-02-07 04:56:00